sat.trackr.live / text

‹ back to catalog

STARLINK-2613

NORAD 48353 · 2021-038A

PAYLOAD ACTIVE UNKNOWN

§ Identity

Operator
Country
US
Launch date
2021-05-04
Launch site
AFETR
Launch vehicle
Mass (kg)
RCS (m²)

Purposes: comms

External: N2YO · Heavens-Above · Gunter

§ Orbital elements

Epoch: 2026-05-25T00:31:47.315424Z

Period
94.01 min
Inclination
53.1604°
Eccentricity
0.0000971
Mean motion
15.31715690 rev/d
Perigee alt
470.0 km
Apogee alt
471.4 km
Semi-major
6,848.8 km
B*
2.4941e-4
RAAN
3.1100°
Arg perigee
91.2925°
Mean anomaly
268.8187°
Rev number
27,877

§ Raw data

STARLINK-26131 48353U 21038A   26145.02207541  .00007386  00000+0  24941-3 0  99922 48353  53.1604   3.1100 0000971  91.2925 268.8187 15.31715690278773

JSON: /api/v1/satellites/48353 · /tle

For live sub-satellite position, see the globe view (requires WebGL).

§ Visibility from observer

Set your observer location to see the next 7 days of passes ≥ 10°. The values pass through the URL so the page stays shareable.

No JS? Fill the form by hand. The geolocation button needs JavaScript.